Temp
12 12 11 11 11 12 11 11 11 11 11 11 11 11 11 10 10 9 9 9 9 9
11 11 11 11 11 11 11 11 11 11 11 11 11 10 10 10 10 10 9 9 9 9
11 11 11 11 11 11 11 11 10 10 10 10 10 10 9 9 9 9 9 9 9 9
11 11 11 11 11 11 11 10 10 10 9 10 10 9 9 9 9 9 9 9 8 8
11 11 11 11 11 11 11 10 9 9 9 9 9 9 9 9 9 8 8 8 8 8
11 10 10 10 10 10 10 10 9 9 8 9 9 8 8 8 8 8 8 8 7 7
11 10 10 10 10 10 10 9 9 9 8 8 8 8 8 8 8 8 7 7 7 7
11 10 10 9 9 9 9 9 8 8 8 7 8 8 8 7 7 7 7 7 7 6
11 10 9 9 9 9 9 8 8 8 8 8 7 7 7 7 7 7 6 6 6 6
11 10 10 9 9 9 9 8 8 7 7 7 7 7 7 6 6 6 6 6 6 6
11 10 10 9 9 8 8 8 7 7 7 7 7 7 7 6 6 6 6 5 5 5
11 10 10 9 9 9 8 7 7 7 7 7 6 6 6 6 6 6 5 5 5 5
12 11 11 10 10 9 8 8 7 6 6 6 6 6 6 6 6 6 6 5 5 5
12 12 11 10 10 9 8 7 6 6 6 6 6 6 5 6 5 6 5 5 5 5
Height
1550 1554 1556 1558 1561 1563 1565 1568 1570 1571 1573 1573 1576 1579 1581 1582 1584 1586 1588 1590 1591 1592
1547 1551 1554 1556 1559 1561 1564 1567 1570 1571 1574 1573 1575 1578 1580 1582 1585 1586 1588 1589 1590 1590
1545 1548 1551 1554 1557 1559 1562 1565 1569 1571 1573 1573 1575 1578 1581 1583 1585 1586 1587 1588 1589 1590
1541 1545 1548 1552 1555 1557 1561 1564 1568 1570 1572 1573 1575 1578 1580 1582 1584 1586 1587 1588 1590 1590
1537 1541 1545 1549 1552 1555 1558 1562 1566 1569 1572 1572 1574 1578 1580 1582 1583 1585 1587 1588 1589 1590
1531 1536 1541 1545 1549 1552 1555 1559 1563 1566 1570 1572 1573 1576 1580 1582 1583 1584 1586 1588 1588 1589
1525 1532 1538 1542 1546 1549 1552 1556 1560 1564 1567 1571 1572 1575 1578 1580 1582 1583 1585 1587 1588 1588
1522 1528 1533 1538 1542 1545 1549 1553 1558 1561 1565 1568 1571 1573 1576 1579 1581 1582 1584 1586 1587 1588
1516 1522 1528 1533 1537 1541 1545 1549 1554 1558 1562 1565 1569 1571 1574 1577 1579 1581 1583 1584 1586 1587
1510 1517 1523 1528 1532 1536 1540 1545 1550 1554 1559 1562 1566 1569 1572 1575 1577 1579 1581 1583 1584 1585
1506 1513 1517 1523 1527 1531 1536 1541 1546 1550 1555 1559 1563 1566 1569 1573 1575 1576 1578 1580 1582 1582
1501 1507 1512 1517 1522 1527 1531 1537 1542 1547 1551 1555 1559 1562 1566 1569 1572 1574 1576 1577 1579 1580
1496 1502 1507 1513 1518 1523 1528 1534 1539 1543 1547 1552 1555 1558 1561 1566 1569 1571 1572 1575 1576 1577
1491 1497 1503 1509 1514 1519 1524 1530 1534 1539 1543 1547 1551 1554 1558 1562 1565 1567 1569 1571 1573 1574
Wind_Speed
17 15 13 8 9 9 9 10 11 11 12 11 10 10 10 10 10 11 11 11 9 7
20 17 14 12 12 10 11 11 12 12 12 13 12 12 11 10 10 11 10 9 7 5
20 19 15 15 12 11 12 13 14 14 14 13 13 12 12 11 11 10 9 8 6 5
22 21 18 17 14 13 14 15 15 15 14 13 13 14 13 12 11 10 9 8 7 5
24 23 21 20 16 16 16 17 17 16 15 15 14 14 13 12 12 10 9 8 7 5
27 26 23 21 18 18 18 19 19 18 17 15 15 14 14 13 11 11 9 7 7 5
30 27 24 23 20 20 20 21 21 20 18 17 16 15 15 14 12 10 9 8 6 5
31 27 26 25 23 23 22 22 22 22 21 19 18 17 16 14 12 10 9 8 6 4
32 29 28 26 25 25 24 24 25 24 22 22 20 18 16 14 12 11 10 8 6 5
32 31 29 28 27 27 27 26 26 25 25 23 21 20 18 16 14 12 11 9 7 6
34 32 31 29 29 28 28 28 28 27 26 24 23 21 19 18 16 15 13 11 9 7
36 33 32 31 29 29 29 29 29 28 27 26 24 23 21 20 19 17 14 12 10 8
35 33 32 30 29 28 29 28 27 28 28 26 25 24 23 22 20 18 16 14 12 10
37 33 30 29 29 28 29 30 29 29 29 28 27 26 25 23 22 20 18 16 13 11
Wind_Direction
199 200 200 201 189 186 186 185 181 178 177 165 168 170 172 176 183 188 200 215 220 214
203 203 206 199 190 188 189 186 183 178 179 168 166 163 158 161 167 164 169 170 167 156
207 204 208 199 197 193 192 189 188 184 178 170 165 164 164 166 164 161 158 154 148 141
206 206 207 202 197 195 194 192 192 187 182 174 171 171 169 167 163 158 156 155 143 129
210 208 206 203 201 196 193 193 194 191 189 182 175 176 172 171 165 160 157 152 137 128
213 209 206 207 204 200 195 196 194 194 195 190 182 181 179 176 172 166 160 155 143 134
215 208 208 209 208 203 200 198 198 197 196 194 189 186 188 184 179 172 166 164 157 142
211 206 209 208 209 204 202 200 200 201 197 195 194 194 192 189 185 179 175 176 167 153
204 205 207 208 207 205 202 202 201 201 202 200 200 195 194 195 192 187 183 184 184 181
202 204 204 206 205 205 204 203 203 203 204 203 203 199 199 197 195 194 195 194 197 199
202 202 203 205 206 206 205 206 207 206 206 205 204 203 203 202 201 201 202 202 205 206
202 203 204 205 206 205 206 206 208 209 209 206 206 205 206 206 206 207 207 210 210 211
203 205 208 207 208 208 208 211 210 211 211 211 211 210 209 209 211 211 212 215 216 215
205 207 209 210 210 210 209 210 212 213 213 212 213 213 214 214 215 216 217 219 221 222